Location: Asheville, NC
(35.6000°N, 82.5500°W)
Time: 18:43:58
(UTC-05:00)

UWE-3 - Pass Details

Date: 10 February 2018
Orbit: 586 x 684 km, 97.6° (Epoch: 16 February)

Event Time Altitude Azimuth Distance (km) Brightness Sun altitude
Rises 20:18:43 0° 201° (SSW) 3,009 ? -27.2°
Reaches altitude 10° 20:21:27 10° 218° (SW) 2,109 ? -27.8°
Maximum altitude 20:24:52 20° 266° (W) 1,538 ? -28.4°
Drops below altitude 10° 20:28:21 10° 314° (NW) 2,129 ? -29.2°
Sets 20:31:08 0° 331° (NNW) 3,048 ? -29.7°
